Regional Weather Roundup
Issued by NWS

Home | Current Version | Previous Version | Text Only | Print | Product List | Glossary Off
Versions: 1 2 3 4 5 6 7 8 9 10 11 12 13 14 15 16 17 18 19 20 21 22 23 24 25 26 27

000
ASUS45 KBOU 301007
RWRCO

WEATHER ROUNDUP FOR COLORADO
NATIONAL WEATHER SERVICE DENVER/BOULDER CO
400 AM MDT SAT JUL 30 2016

NOTE: "FAIR" INDICATES FEW OR NO CLOUDS BELOW 12000 FEET WITH NO
SIGNIFICANT WEATHER AND/OR OBSTRUCTIONS TO VISIBILITY.

COZ001>005-013-030-031-301100-
...NORTHWEST COLORADO...

CITY           SKY/WX    TMP DP  RH WIND       PRES   REMARKS
CRAIG          FAIR      47  39  74 CALM      30.13R
HAYDEN         FAIR      57  36  44 E13       30.14S
MEEKER         FAIR      54  40  59 NE5       30.15R
MOUNT WERNER   NOT AVBL
STEAMBOAT SPGS FAIR      50  38  63 CALM      30.18R
WALDEN         FAIR      39  32  75 SE8       30.26F
$$

COZ006>008-011-301100-
...WEST CENTRAL VALLEYS...

CITY           SKY/WX    TMP DP  RH WIND       PRES   REMARKS
GRAND JUNCTION FAIR      71  38  29 SE9       29.98R
MONTROSE       FAIR      67  41  38 S7        30.10R
EAGLE          FAIR      57  36  44 CALM      30.19S
RIFLE          FAIR      61  36  39 SW3       30.08R
DELTA          NOT AVBL
NUCLA          NOT AVBL
$$

COZ017>023-064>068-301100-
...SOUTHWEST COLORADO...

CITY           SKY/WX    TMP DP  RH WIND       PRES   REMARKS
DURANGO        FAIR      59  43  55 CALM      30.22F
CORTEZ         FAIR      65  46  50 N3        30.12S
PAGOSA SPRINGS FAIR      56  41  58 CALM      30.32F
TELLURIDE      MOCLDY    64  32  29 CALM      30.40S
WOLF CREEK PAS FAIR      45  36  70 SW17      30.64F
$$

COZ009-010-012-014-032>034-037-058>063-301100-
...CENTRAL COLORADO...

CITY           SKY/WX    TMP DP  RH WIND       PRES   REMARKS
ASPEN          FAIR      54  37  52 S5        30.25S
BUENA VISTA    CLOUDY    56  46  70 CALM      30.32S
COPPER MTN     FAIR      54  30  40 W10       30.59S
BERTHOUD PASS  FAIR      46  32  57 NW16G23   30.60S
COTTONWOOD PAS MOCLDY    55  50  82 NE3       30.44F
GUNNISON       FAIR      52  36  54 N8        30.31R
KREMMLING      FAIR      45  34  65 CALM      30.25S
LEADVILLE      MOCLDY    45  41  86 E6        30.43F
MONARCH PASS   FAIR      50  36  57 MISG      30.70S
SALIDA         FAIR      58  52  81 SW5       30.35F
SUNLIGHT       FAIR      63  30  29 MISG      30.51F
WILKERSON PASS FOG       48  46  93 SW7       30.56F VSB 1
$$

COZ069>075-301100-
...SAN LUIS VALLEY/SANGRE DE CRISTO MOUNTAINS...

CITY           SKY/WX    TMP DP  RH WIND       PRES   REMARKS
ALAMOSA        FAIR      56  42  59 E5        30.27R
LA VETA PASS   MOCLDY    52  41  66 S8G21     30.46S
SAGUACHE       FAIR      55  41  58 CALM      30.31S
$$

COZ035-036-038>040-301100-
...NORTHERN COLORADO FRONT RANGE...

CITY           SKY/WX    TMP DP  RH WIND       PRES   REMARKS
DENVER INTL AP FAIR      67  58  72 S21G31    30.08F
DMNS CITY PARK   N/A     64  58  82 NW2       30.08F
AURORA         PTCLDY    66  60  79 S18G28    30.10F
FRONT RANGE AP NOT AVBL
ERIE MUNI ARPT FAIR      61  58  89 CALM      30.08F
BOULDER MUN AP FAIR      63  59  88 CALM      30.08F
CENTENNIAL     FAIR      66  58  75 S21G26    30.11F
BROOMFIELD     FAIR      63  59  88 NE5       30.12R
LONGMONT       NOT AVBL
$$

COZ041-046-047-076>085-087-088-301100-
...PIKES PEAK/PALMER DIVIDE AND SOUTHERN FOOTHILLS...

CITY           SKY/WX    TMP DP  RH WIND       PRES   REMARKS
COLO. SPRINGS  MOCLDY    62  59  90 E9        30.21R
A. F. ACADEMY  LGT RAIN  61  61 100 E12       30.19F
SCHRIEVER AFB  NOT AVBL
ELLICOTT       NOT AVBL
FALCON         CLOUDY    59  58  98 SE14      30.25  FOG
FORT CARSON    MOCLDY    63  61  94 E6        30.17S
LIMON          MOCLDY    62  61  96 SE20      30.12F
MONUMENT HILL  CLOUDY    59  55  88 S15G21    30.24F
TRINIDAD       NOT AVBL
$$

COZ042>045-048>051-090-091-301100-
...NORTHEAST COLORADO...

CITY           SKY/WX    TMP DP  RH WIND       PRES   REMARKS
GREELEY ARPT   FAIR      64  61  88 SE7       30.07S
AKRON          FAIR      63  55  75 SW10      30.07S
BURLINGTON     FAIR      65  54  67 SW14      30.06F
WRAY           FAIR      63  63 100 CALM      30.04
STERLING       NOT AVBL
HOLYOKE        NOT AVBL
FORT MORGAN    NOT AVBL
$$

COZ086-089-092>099-301100-
...SOUTHEAST COLORADO...

CITY           SKY/WX    TMP DP  RH WIND       PRES   REMARKS
PUEBLO         FAIR      67  59  75 NE10      30.10S
LA JUNTA       FAIR      67  60  78 E14       30.07F
LAMAR          FAIR      66  63  90 SE8       30.06F
SPRINGFIELD      N/A     56  54  93 E3        30.11F
$$




USA.gov is the U.S. government's official web portal to all federal, state and local government web resources and services.